Location: *
(32.3300°N, 34.8500°E)
Time: 04:00:17
(UTC+00:00)

Cosmos 1356 - Pass Details

Date: 22 October 2019
Orbit: 447 x 449 km, 81.1° (Epoch: 11 November)

Event Time Altitude Azimuth Distance (km) Brightness Sun altitude
Rises 02:51:54 0° 341° (NNW) 2,453 6.9 -12.8°
Reaches altitude 10° 02:54:04 10° 332° (NNW) 1,578 5.8 -12.3°
Maximum altitude 02:57:14 34° 266° (W) 752 4.0 -11.7°
Drops below altitude 10° 03:00:22 10° 199° (SSW) 1,569 6.0 -11.0°
Sets 03:02:32 0° 190° (S) 2,436 7.1 -10.6°
